Location: Hains Lake
(37.8540°N, 99.8578°W)
Time: 04:56:02
(UTC+00:00)

Envisat - Visible Passes

Search period start: 26 February 2021 00:00
Search period end: 08 March 2021 00:00
Orbit: 764 x 766 km, 98.1° (Epoch: 25 February)

Date Brightness Start Highest point End Pass type
(mag) Time Alt. Az. Time Alt. Az. Time Alt. Az.
26 Feb 6.6 01:01:32 10° WSW 01:03:32 12° W 01:05:34 10° WNW visible
26 Feb 5.2 11:30:18 10° NE 11:34:34 27° E 11:38:49 10° SSE visible
27 Feb 6.2 10:55:55 10° ENE 10:57:25 11° E 10:58:54 10° ESE visible
27 Feb 3.0 12:31:50 10° N 12:36:55 73° WNW 12:41:58 10° SSW visible
28 Feb 4.1 11:55:10 10° NNE 12:00:05 48° E 12:04:58 10° S visible
01 Mar 5.6 11:19:16 10° NE 11:23:04 21° E 11:26:51 10° SE visible
02 Mar 3.1 12:20:24 10° NNE 12:25:30 87° ESE 12:30:35 10° SSW visible
03 Mar 4.6 11:43:55 10° NNE 11:48:37 37° E 11:53:18 10° SSE visible
04 Mar 5.9 11:08:25 10° NE 11:11:32 16° E 11:14:39 10° SE visible
05 Mar 3.4 12:09:00 10° NNE 12:14:05 68° ESE 12:19:07 10° S visible
06 Mar 6.8 01:04:44 10° WSW 01:06:08 11° W 01:07:32 10° WNW visible
06 Mar 5.1 11:32:43 10° NE 11:37:08 29° E 11:41:31 10° SSE visible
07 Mar 6.1 10:57:55 10° ENE 11:00:00 12° E 11:02:04 10° ESE visible
07 Mar 3.0 12:34:23 10° N 12:39:27 67° WNW 12:44:28 10° SSW visible
